Location: Sears
(37.7625°N, 100.1060°W)
Time: 11:59:12
(UTC+00:00)

Envisat - Pass Details

Date: 04 August 2021
Orbit: 764 x 766 km, 98.2° (Epoch: 22 September)

Event Time Altitude Azimuth Distance (km) Brightness Sun altitude
Rises 11:14:29 0° 23° (NNE) 3,239 7.1 -6.6°
Reaches altitude 10° 11:17:01 10° 33° (NNE) 2,308 6.6 -6.2°
Maximum altitude 11:21:35 33° 97° (E) 1,268 4.9 -5.4°
Drops below altitude 10° 11:26:07 10° 161° (SSE) 2,293 5.4 -4.6°
Sets 11:28:37 0° 170° (S) 3,214 6.1 -4.1°
